DELTA 1 DEB, 10716

Orbit data source: Space-Track

DELTA 1 DEB, 10716 is space debris in SSO originally from a launch on Thu, 29 Jul 1976 UTC launched from the Air Force Western Test Range (AFWTR). Debris objects in space refer to the collection of defunct objects orbiting the Earth. Examples of debris include non-operational satellites, rocket bodies, and fragments generated from explosions, collisions, or faulty payload assembly.

Loading next visibility...
Identifier
10716, 1976-077AM
Orbit
SSO
Country
Flag of USUS
Related business
Manufacturer
Unknown
Mission
Spacecraft
Bus & Motor
Unknown
Mass
Unknown
Launch date (UTC)
1976-07-29 (49 years ago)
Launch vehicle
Unknown
Launch site
Air Force Western Test Range (AFWTR)
Object type
Payload
Rocket body
Debris
Shape & HBR
Unknown shape, 0.1 m
Radar Cross Section
Small (<0.1 m²)

Expand to show TLE details & history
Last TLE update: 9 hours ago

TLE from 9 hours ago
0 DELTA 1 DEB
1 10716U 76077AM  25289.04992769  .00004773  00000-0  20127-1 0  9998
2 10716 102.7453  95.3429 0129947 220.4725 266.3928 12.81200443245513
Epoch: 2025-10-16T01:11Z
TLE epoch observation values (Epoch: 2025-10-16T01:11:53.752Z)
Latitude
52.77401°
Longitude
-110.21473°
Altitude
1,352.605 km
Speed
7.183 km/s
True Right ascension
19h 30m 17s
True Declination
52° 37' 16"
Sunlit
Object was in daylight at epoch
Visualization orbit readout
Latitude
Unknown
Longitude
Unknown
Altitude
Unknown
Speed
Unknown
Apparent Right ascension
Unknown
Apparent Declination
Unknown
Sunlit
N/A
Visualization observer readout
Local Sidereal Time
04:37:21
Azimuth
Unknown
Elevation
Unknown
Doppler factor
Unknown
Orbital elements
Apogee altitude
1,434.434 km
Perigee altitude
1,233.995 km
Semi-major axis
7,712.351 km
Eccentricity
0.01299
Inclination
102.7453°
RAAN
95.3429°
Arg. of periapsis
220.4725°
True anomaly
264.90835°
Mean anomaly
266.3928°
Eccentric anomaly
265.6504°
Mean motion
3.20452 °/min
Orbital period
112.34 mins
BSTAR
0.020127
Loading maneuver chart data...
Computing Atmospheric mass density...
Loading historical data...
Loading historical data...
Loading historical data...
Loading historical data...
Loading historical data...
Loading historical data...
Loading historical data...

Documentation

Showing up to 5 results
|